This is the latest recevied weather packets stored in our database for station/object OK1VCF-8. If no packets are shown the sender has not sent any weather packets the latest 1 day(s).
| Time | Temp. | Humidity | Pressure | Rain* | Wind** | Luminosity | Snow |
|---|---|---|---|---|---|---|---|
| 1778050503 | 17.78° C | 70% | 1008 hPa | - | - | - | - |
| 1778050047 | 17.78° C | 73% | 1007.8 hPa | - | - | - | - |
| 1778048500 | 16.11° C | 78% | 1007.8 hPa | - | - | - | - |
| 1778047124 | 15° C | 84% | 1007.6 hPa | - | - | - | - |
| 1778046671 | 14.44° C | 86% | 1007.8 hPa | - | - | - | - |
| 1778046229 | 13.89° C | 88% | 1007.9 hPa | - | - | - | - |
| 1778045790 | 13.89° C | 88% | 1007.8 hPa | - | - | - | - |
| 1778045351 | 13.33° C | 88% | 1007.9 hPa | - | - | - | - |
| 1778044473 | 13.33° C | 90% | 1007.8 hPa | - | - | - | - |
| 1778044036 | 13.33° C | 92% | 1008 hPa | - | - | - | - |
| 1778043596 | 13.33° C | 91% | 1007.9 hPa | - | - | - | - |
| 1778043159 | 13.33° C | 91% | 1007.8 hPa | - | - | - | - |
| 1778042557 | 13.33° C | 88% | 1007.7 hPa | - | - | - | - |
| 1778042114 | 14.44° C | 90% | 1007.6 hPa | - | - | - | - |
| 1778041677 | 12.22° C | 92% | 1007.6 hPa | - | - | - | - |
| 1778041238 | 12.78° C | 90% | 1007.5 hPa | - | - | - | - |
| 1778039938 | 12.78° C | 96% | 1007.4 hPa | - | - | - | - |
| 1778039502 | 12.22° C | 96% | 1007 hPa | - | - | - | - |
| 1778039056 | 11.11° C | 96% | 1007.1 hPa | - | - | - | - |
| 1778038602 | 11.11° C | 96% | 1007.2 hPa | - | - | - | - |
| 1778036844 | 11.11° C | 96% | 1007.2 hPa | - | - | - | - |
| 1778035804 | 11.11° C | 96% | 1007.2 hPa | - | - | - | - |
| 1778035365 | 11.11° C | 96% | 1007.1 hPa | - | - | - | - |
| 1778034926 | 11.11° C | 96% | 1007.2 hPa | - | - | - | - |
| 1778034489 | 11.11° C | 96% | 1007.2 hPa | - | - | - | - |
* Rain since midnight (hover to see other rain measurements)
** Current wind speed in m/s (hover to see current wind gust speed)